Regional Weather Roundup
Issued by NWS

Home | Current Version | Previous Version | Graphics & Text | Print | Product List | Glossary On
Versions: 1 2 3 4 5 6 7 8 9 10 11 12 13 14 15 16 17 18 19 20 21 22 23 24 25 26 27 28 29 30 31 32 33 34 35 36 37 38 39 40 41 42 43 44 45 46 47 48 49 50
000
ASUS43 KLOT 301500
RWRIL

ILLINOIS REGIONAL WEATHER ROUNDUP
NATIONAL WEATHER SERVICE CHICAGO/ROMEOVILLE IL
1000 AM CDT THU JUL 30 2015

NOTE: "FAIR" INDICATES FEW OR NO CLOUDS BELOW 12,000 FEET WITH NO
SIGNIFICANT WEATHER AND/OR OBSTRUCTIONS TO VISIBILITY.

* THESE STATIONS ARE NOT UNDER NWS QUALITY CONTROL. THEY ALSO MAY NOT
  REPORT WEATHER SUCH AS PRECIPITATION OR FOG.

ILZ001-002-007-009-015-016-024-301600-
NORTHWEST ILLINOIS

CITY           SKY/WX    TMP DP  RH WIND       PRES   REMARKS
MOLINE         SUNNY     78  63  59 W7        30.11S HX  80
STERLING*      SUNNY     79  64  61 W7        30.07S HX  81
$$

ILZ003-004-008-010-011-017-018-301600-
NORTH CENTRAL ILLINOIS

CITY           SKY/WX    TMP DP  RH WIND       PRES   REMARKS
ROCKFORD       SUNNY     79  60  52 NW9       30.09S HX  80
$$

ILZ005-006-012>014-019>023-301600-
NORTHEAST ILLINOIS

CITY           SKY/WX    TMP DP  RH WIND       PRES   REMARKS
CHICAGO-OHARE  SUNNY     79  58  48 NW14      30.06S HX  80
CHICAGO-MIDWAY SUNNY     82  56  40 NW10      30.06S HX  82
AURORA         SUNNY     77  61  57 W9        30.09R
WAUKEGAN       SUNNY     77  60  55 W7        30.04S
DUPAGE AIRPORT SUNNY     79  57  46 NW13      30.07S HX  80
WHEELING       SUNNY     80  56  43 NW12      30.07S HX  80
NORTHERLY ISL    N/A     79  55  43 W10         N/A
$$

LMZ740>746-301600-
SOUTHERN LAKE MICHIGAN

STATION/POSITION SKY/WX   TEMP    WIND        PRES    VSBY  WAVE
                          AIR SEA DIR/SP/G                  HT/PER
                          (F)     (DEG/KT/KT) (MB)    (MI)  (FT/S)
HARRISON CRIB              73     270/ 11/ 13   N/A
BURNHAM HARBOR             76     270/  7/ 12   N/A
CALUMET HARBOR             76     260/  5/ 10   N/A
BURNS HARBOR               72     280/ 12/ 13 1018.3R
MICHIGAN CITY              72     250/ 15/ 16   N/A
MICHIGAN CITY 6N           73 73  290/ 12/ 16   N/A           3/ 5
ST. JOSEPH                 72 73  310/ 12/ 14   N/A           4/ 5
$$

ILZ025>027-034>036-040-047-049-050-058-095>099-301600-
WEST-CENTRAL ILLINOIS

CITY           SKY/WX    TMP DP  RH WIND       PRES   REMARKS
QUINCY         SUNNY     79  62  56 W6        30.18R HX  80
$$

ILZ028>032-037-038-041>044-048-051>054-059>061-301600-
CENTRAL ILLINOIS

CITY           SKY/WX    TMP DP  RH WIND       PRES   REMARKS
DECATUR        SUNNY     80  60  50 NW13      30.13S HX  81
PEORIA         SUNNY     79  62  56 NW8       30.13R HX  80
SPRINGFIELD    SUNNY     81  64  56 NW9       30.15R HX  82
TAYLORVILLE    NOT AVBL
$$

ILZ033-039-045-046-055>057-062-063-301600-
EAST-CENTRAL ILLINOIS

CITY           SKY/WX    TMP DP  RH WIND       PRES   REMARKS
CHAMPAIGN      SUNNY     78  65  63 VRB7      30.12S HX  80
MATTOON        SUNNY     80  60  50 NW12      30.13R HX  81
$$

ILZ079-100>102-301600-
SOUTHWEST ILLINOIS

CITY           SKY/WX    TMP DP  RH WIND       PRES   REMARKS
BELLEVILLE     SUNNY     82  66  57 NW5       30.15R HX  84
CAHOKIA*       SUNNY     84  59  42 N5        30.16S HX  84
$$

ILZ064>066-069>071-074>076-080>082-084>086-088>090-092>094-301600-
SOUTH-CENTRAL ILLINOIS

CITY           SKY/WX    TMP DP  RH WIND       PRES   REMARKS
CARBONDALE     SUNNY     80  62  54 N9        30.16R HX  81
MARION         SUNNY     81  64  57 N8        30.16R HX  82
MT. VERNON     SUNNY     81  63  54 N3        30.16R HX  82
$$

ILZ067-068-072-073-078-083-087-091-301600-
SOUTHEAST ILLINOIS

CITY           SKY/WX    TMP DP  RH WIND       PRES   REMARKS
LAWRENCEVILLE  SUNNY     79  63  57 N10       30.13S HX  80
$$

ABBREVIATIONS USED IN REMARKS
   TC - TEMPERATURE IN CELSIUS
  WCI - WIND CHILL INDEX
   HX - HEAT INDEX
  VSB - VISIBILITY
$$



USA.gov is the U.S. government's official web portal to all federal, state and local government web resources and services.